Flight Track Log - Related Links

Times and Time Zones

All times are in EST time to prevent confusion due to time zone crossing. See the ELJ733 flight status page for this flight to view local times or setup timezone preferences in your user account.

Time Position Orientation Groundspeed Altitude Reporting Facility
EST Latitude Longitude Course Direction KTS MPH feet Rate Location/Type
Tue 05:14:01 PM 39.2678 -106.8981 310° West 219 252 11,800  Level Denver Center
Tue 05:15:02 PM 39.3075 -106.9589 310° West 240 276 17,200 4,927 Climbing Denver Center
Tue 05:16:04 PM 39.3797 -106.9692 354° North 257 296 21,900 4,210 Climbing Denver Center
Tue 05:17:06 PM 39.4617 -106.9750 357° North 262 302 25,900 2,927 Climbing Denver Center
Tue 05:18:07 PM 39.5492 -106.9833 356° North 314 361 27,900 1,512 Climbing Denver Center
Tue 05:19:09 PM 39.6631 -106.9831 360° North 365 420 29,000 1,403 Climbing Denver Center
Tue 05:20:11 PM 39.7583 -106.9514 14° North 400 460 30,800 1,935 Climbing Denver Center
Tue 05:21:13 PM 39.8183 -106.8125 61° Northeast 472 543 33,000 1,645 Climbing Denver Center
Tue 05:22:15 PM 39.8181 -106.6322 90° East 497 572 34,200 1,805 Climbing Denver Center
Tue 05:23:16 PM 39.8178 -106.4292 90° East 498 573 36,700 1,366 Climbing Denver Center
Tue 05:24:18 PM 39.8189 -106.2536 89° East 490 564 37,000 290 Climbing Denver Center
Tue 05:25:20 PM 39.8183 -106.0778 90° East 486 559 37,300 1,210 Climbing Denver Center
Tue 05:26:22 PM 39.8197 -105.9028 89° East 484 557 39,500 1,756 Climbing Denver Center
Tue 05:27:23 PM 39.8189 -105.7314 90° East 477 549 40,900 732 Climbing Denver Center
Tue 05:28:25 PM 39.8175 -105.5222 90° East 484 557 41,000 48 Climbing Denver Center
Tue 05:29:27 PM 39.8175 -105.3425 90° East 495 570 41,000  Level Denver Center
Tue 05:30:29 PM 39.8164 -105.1675 90° East 486 559 41,000  Level Denver Center
Tue 05:31:30 PM 39.8139 -104.9983 91° East 470 541 41,000  Level Denver Center
Tue 05:32:32 PM 39.8131 -104.8264 90° East 471 542 41,000  Level Denver Center
Tue 05:33:34 PM 39.8106 -104.6525 91° East 473 544 41,000  Level Denver Center
Tue 05:34:38 PM 39.8097 -104.4761 90° East 479 551 41,000  Level Denver Center
Tue 05:35:38 PM 39.8069 -104.2969 91° East 489 563 41,000  Level Denver Center
Tue 05:36:39 PM 39.8047 -104.1175 91° East 494 568 41,000  Level Denver Center
Tue 05:37:41 PM 39.8011 -103.9372 91° East 499 574 41,000  Level Denver Center
Tue 05:38:43 PM 39.7981 -103.7222 91° East 497 572 41,000  Level Denver Center
Tue 05:39:45 PM 39.7944 -103.5442 91° East 495 570 41,000  Level Denver Center
Tue 05:40:47 PM 39.7911 -103.3667 91° East 492 566 41,000  Level Denver Center
Tue 05:41:49 PM 39.7875 -103.1872 91° East 495 570 41,000  Level Denver Center
Tue 05:42:51 PM 39.7831 -103.0114 92° East 489 563 41,000  Level Denver Center
Tue 05:43:53 PM 39.7786 -102.8339 92° East 490 564 41,000  Level Denver Center
Tue 05:44:55 PM 39.7733 -102.6408 92° East 498 573 41,000  Level Denver Center
Tue 05:45:57 PM 39.7681 -102.4425 92° East 494 568 41,000  Level Denver Center
Tue 05:46:59 PM 39.7619 -102.2722 93° East 494 568 41,000  Level Denver Center
Tue 05:48:01 PM 39.7561 -102.0747 92° East 491 565 41,000  Level Denver Center
Tue 05:49:03 PM 39.7514 -101.9031 92° East 495 570 41,000  Level Denver Center
Tue 05:50:05 PM 39.7433 -101.7033 93° East 497 572 41,000  Level Denver Center
Tue 05:51:07 PM 39.7383 -101.5322 92° East 498 573 41,000  Level Denver Center
Tue 05:52:09 PM 39.7300 -101.3308 93° East 500 575 41,000  Level Denver Center
Tue 05:53:10 PM 39.7228 -101.1561 93° East 505 581 41,000  Level Denver Center
Tue 05:54:12 PM 39.7147 -100.9544 93° East 503 579 41,000  Level Denver Center
Tue 05:55:14 PM 39.7075 -100.7828 93° East 501 577 41,000  Level Denver Center
Tue 05:56:16 PM 39.6983 -100.5794 93° East 505 581 41,000  Level Denver Center
Tue 05:57:18 PM 39.6906 -100.4056 93° East 505 581 41,000  Level Denver Center
Tue 05:58:32 PM 39.6808 -100.2039 94° East 505 581 41,000  Level Denver Center
Tue 05:59:46 PM 39.6708 -99.9994 94° East 508 585 41,000  Level Denver Center
Tue 06:00:49 PM 39.6583 -99.7647 94° East 507 583 41,000  Level Denver Center
Tue 06:01:51 PM 39.6494 -99.5822 94° East 508 585 41,000  Level Denver Center
Tue 06:02:53 PM 39.6392 -99.3983 94° East 512 589 41,000  Level Denver Center
Tue 06:03:54 PM 39.6292 -99.2172 94° East 508 585 41,000  Level Denver Center
Tue 06:04:56 PM 39.6181 -99.0364 95° East 506 582 41,000  Level Denver Center
Tue 06:05:58 PM 39.6053 -98.8214 94° East 502 578 41,000  Level Denver Center
Tue 06:07:00 PM 39.5939 -98.6439 95° East 497 572 41,000  Level Denver Center
Tue 06:08:02 PM 39.5833 -98.4661 94° East 496 571 41,000  Level Denver Center
Tue 06:09:04 PM 39.5722 -98.2892 95° East 494 568 41,000  Level Denver Center
Tue 06:10:32 PM 39.5539 -98.0264 95° East 500 575 41,000  Level Kansas City Center
Tue 06:11:31 PM 39.5422 -97.8656 95° East 491 565 41,000  Level Kansas City Center
Tue 06:12:35 PM 39.5289 -97.6497 95° East 498 573 41,000  Level Kansas City Center
Tue 06:13:35 PM 39.5153 -97.4711 96° East 499 574 41,000  Level Kansas City Center
Tue 06:14:39 PM 39.5014 -97.2836 95° East 499 574 41,000  Level Kansas City Center
Tue 06:15:39 PM 39.4897 -97.1097 95° East 504 580 41,000  Level Kansas City Center
Tue 06:16:44 PM 39.4753 -96.9372 96° East 505 581 41,000  Level Kansas City Center
Tue 06:17:45 PM 39.4597 -96.7353 96° East 506 582 41,000  Level Kansas City Center
Tue 06:18:46 PM 39.4461 -96.5617 96° East 506 582 41,000  Level Kansas City Center
Tue 06:19:49 PM 39.4303 -96.3714 96° East 508 585 41,000  Level Kansas City Center
Tue 06:20:50 PM 39.4156 -96.1903 96° East 508 585 41,000  Level Kansas City Center
Tue 06:21:51 PM 39.3992 -95.9778 96° East 514 592 41,000  Level Kansas City Center
Tue 06:22:54 PM 39.3833 -95.8025 97° East 513 590 41,000  Level Kansas City Center
Tue 06:23:55 PM 39.3650 -95.5967 97° East 513 590 41,000  Level Kansas City Center
Tue 06:24:58 PM 39.3478 -95.4019 96° East 519 597 41,000  Level Kansas City Center
Tue 06:25:59 PM 39.3319 -95.2267 97° East 511 588 41,000  Level Kansas City Center
Tue 06:27:00 PM 39.3133 -95.0317 97° East 509 586 41,000  Level Kansas City Center
Tue 06:28:04 PM 39.2958 -94.8547 97° East 514 592 41,000  Level Kansas City Center
Tue 06:29:05 PM 39.2800 -94.6792 97° East 514 592 41,000 -195 Level Kansas City Center
Tue 06:30:07 PM 39.2636 -94.4711 96° East 519 597 40,600 -829 Descending Kansas City Center
Tue 06:31:08 PM 39.2483 -94.2897 96° East 529 609 39,300 -1,597 Descending Kansas City Center
Tue 06:32:11 PM 39.2300 -94.0842 97° East 517 595 37,300 -1,113 Descending Kansas City Center
Tue 06:33:12 PM 39.2147 -93.9119 96° East 507 583 37,000 -148 Descending Kansas City Center
Tue 06:34:13 PM 39.1961 -93.7061 97° East 518 596 37,000 -144 Level Kansas City Center
Tue 06:35:17 PM 39.1797 -93.5264 97° East 526 605 36,700 -864 Descending Kansas City Center
Tue 06:36:18 PM 39.1642 -93.3217 96° East 533 613 35,200 -1,574 Descending Kansas City Center
Tue 06:37:19 PM 39.1458 -93.1358 97° East 531 611 33,500 -1,574 Descending Kansas City Center
Tue 06:38:20 PM 39.1275 -92.9511 97° East 529 609 32,000 -1,452 Descending Kansas City Center
Tue 06:39:23 PM 39.1097 -92.7672 97° East 526 605 30,500 -1,344 Descending Kansas City Center
Tue 06:40:25 PM 39.0911 -92.5872 98° East 514 592 29,200 -1,317 Descending Kansas City Center
Tue 06:41:26 PM 39.0736 -92.4114 97° East 501 577 27,800 -1,967 Descending Kansas City Center
Tue 06:42:27 PM 39.0556 -92.2356 97° East 495 570 25,200 -2,903 Descending Kansas City Center
Tue 06:43:30 PM 39.0339 -92.0325 98° East 483 556 21,800 -2,903 Descending Kansas City Center
Tue 06:44:31 PM 39.0186 -91.8808 97° East 440 506 19,200 -2,400 Descending Kansas City Center
Tue 06:45:35 PM 38.9992 -91.7400 100° East 408 470 16,800 -2,129 Descending Kansas City Center
Tue 06:46:35 PM 38.9633 -91.6283 112° Southeast 384 442 14,800 -2,607 Descending Kansas City Center
Tue 06:47:37 PM 38.9258 -91.5119 112° Southeast 363 418 11,500 -3,512 Descending Kansas City Center
Tue 06:48:38 PM 38.8889 -91.3833 110° East 329 379 7,600 -3,000 Descending Kansas City Center
Tue 06:49:41 PM 38.8606 -91.2928 112° Southeast 285 328 5,300 -1,238 Descending Kansas City Center
Tue 06:50:44 PM 38.8342 -91.2061 111° Southeast 268 308 5,000 -484 Descending Kansas City Center
Tue 06:51:45 PM 38.8103 -91.1158 109° East 267 307 4,300 -738 Descending Kansas City Center
Tue 06:52:46 PM 38.7889 -91.0281 107° East 261 300 3,500 -387 Descending Kansas City Center
Tue 06:53:49 PM 38.7672 -90.9428 108° East 257 296 3,500 -290 Level Kansas City Center
Tue 06:54:50 PM 38.7403 -90.8414 109° East 252 290 2,900 -496 Descending Kansas City Center
Tue 06:55:50 PM 38.7097 -90.7575 115° Southeast 259 298 2,500 -242 Descending Kansas City Center
Tue 06:56:54 PM 38.6686 -90.6872 127° Southeast 252 290 2,400 -288 Descending Kansas City Center
Tue 06:57:55 PM 38.6239 -90.6347 137° Southeast 234 269 1,900 -484 Descending Kansas City Center
Tue 06:58:58 PM 38.6464 -90.6000 50° Northeast 180 207 1,400 -639 Descending Kansas City Center
Tue 06:59:57 PM 38.6622 -90.6331 302° West 145 167 600 -814 Descending Kansas City Center
Tue 07:01:00 PM 38.6500 -90.6500 322° Northwest  Level FlightAware Approximate

Login

Don't have an account? Register now (free) for customized features, flight alerts, and more!